Location: N�rnberg
(49.4489°N, 11.0797°E)
Time: 23:27:56
(UTC+01:00)

ISS - Pass Details

Date: 15 November 2017
Orbit: 401 x 407 km, 51.6° (Epoch: 25 November)

Event Time Altitude Azimuth Distance (km) Brightness Sun altitude
Exits shadow 06:28:20 11° 258° (WSW) 1,397 -1.6 -9.6°
Maximum altitude 06:30:13 16° 221° (SW) 1,136 -1.8 -9.3°
Drops below altitude 10° 06:32:20 10° 180° (S) 1,448 -0.8 -9.0°
Sets 06:34:55 0° 158° (SSE) 2,303 0.6 -8.6°
